Wind_Speed
3 3 3 4 5 6 5 4 5 4 4 3 3 2 2 2 3 4 5 7 8 9 10 10 10 9 9 8 7 6 6 5 5 5 5 5 5 4 3 3 2 2 1
4 4 4 5 6 7 7 6 6 5 4 4 3 3 3 3 3 4 5 6 8 9 10 10 10 9 9 7 7 6 6 5 4 4 5 5 4 4 3 2 2 2 1
5 5 5 6 7 7 8 7 7 6 6 5 5 4 4 4 4 4 5 6 7 8 9 9 9 9 9 7 6 6 5 4 4 4 4 4 4 3 3 2 2 2 2
5 6 7 8 8 8 9 9 9 8 8 7 7 6 5 5 5 5 5 6 7 8 9 9 9 9 8 7 6 5 5 4 3 3 3 3 3 3 3 3 3 3 2
7 7 8 9 9 9 9 10 10 10 9 9 9 8 8 7 7 7 7 7 7 7 8 8 9 8 8 7 6 5 5 4 4 3 3 3 3 3 3 3 3 3 3
9 9 9 9 9 9 10 10 11 11 11 11 11 11 10 10 10 9 8 8 7 8 8 8 8 8 8 7 6 6 5 5 4 4 4 3 3 3 3 4 4 4 4
10 10 11 10 10 10 10 11 11 12 12 13 13 12 12 12 12 11 10 9 9 9 9 8 8 8 8 7 7 6 6 6 6 5 5 4 4 4 3 4 4 5 5
11 11 11 11 11 10 10 11 12 13 13 13 14 14 13 13 13 13 12 11 10 10 10 9 9 9 8 7 7 7 7 7 7 6 5 5 5 4 4 4 5 5 5
13 12 12 13 13 12 12 12 13 14 14 15 15 14 15 14 14 14 13 12 12 11 11 10 10 9 9 8 8 8 9 9 8 7 6 6 5 5 4 4 5 6 6
15 14 14 14 14 14 14 13 14 14 15 16 16 16 16 16 16 15 14 14 13 13 13 12 11 10 10 9 9 9 10 9 9 8 8 7 6 5 5 5 6 6 6
17 17 16 16 16 16 16 15 16 16 17 17 17 17 17 17 17 17 16 16 15 15 14 13 12 12 11 11 10 11 11 11 10 10 9 8 7 7 6 6 7 7 7
19 19 18 18 18 18 18 17 17 18 19 18 18 18 18 18 18 18 18 17 17 17 16 15 14 14 13 12 12 12 12 12 11 11 11 10 9 9 8 8 8 8 9
21 19 20 19 19 20 20 20 20 20 20 21 21 20 20 20 19 20 20 20 19 18 18 17 16 15 15 14 13 13 13 13 13 12 12 11 11 11 11 10 10 10 10
23 22 21 22 22 22 22 22 22 23 22 23 24 24 23 22 22 21 21 21 21 20 20 19 19 18 17 16 15 15 15 15 14 14 14 13 13 12 13 12 12 12 12
25 24 24 24 24 24 24 24 23 24 26 25 26 26 25 24 23 23 22 22 22 22 21 21 21 19 19 18 17 16 16 16 16 16 16 15 14 14 14 14 14 15 15
27 27 26 26 26 27 26 26 26 26 28 28 28 28 28 27 25 24 25 24 23 23 23 23 22 21 21 20 19 18 18 18 17 18 17 16 16 16 16 16 17 17 18
26 27 27 27 27 27 27 27 27 29 29 30 29 29 29 28 28 26 26 25 25 25 25 25 24 22 21 21 21 20 20 20 19 19 19 18 18 18 18 18 19 19 19
27 27 28 28 28 28 28 28 29 29 30 29 30 30 30 30 29 28 28 27 27 27 27 26 25 24 23 23 23 22 22 22 21 20 20 20 20 19 20 20 20 20 20
27 28 28 28 28 29 29 30 29 29 30 30 31 32 31 30 31 31 30 30 30 30 29 28 27 26 26 25 24 24 24 23 22 22 22 22 22 22 22 21 22 22 22
28 29 29 29 29 30 30 30 30 31 32 32 31 31 30 30 31 33 33 32 33 32 31 31 30 28 28 27 27 26 25 24 24 24 24 24 24 24 24 24 24 24 24
28 29 29 30 30 30 31 31 32 32 33 33 32 32 32 32 32 32 33 33 34 34 32 32 32 31 30 30 29 28 28 26 26 25 25 25 25 25 26 26 26 26 26
25 26 27 28 29 30 29 30 31 31 31 31 32 32 32 32 31 32 32 31 33 33 33 33 32 32 31 31 31 30 29 28 28 28 27 27 26 27 28 28 28 28 29
25 25 26 27 27 28 28 28 29 30 31 29 31 32 31 32 31 31 31 30 31 32 33 35 35 35 34 33 32 31 30 30 30 30 29 29 29 29 30 30 30 30 30
24 24 24 24 25 26 26 26 26 27 28 30 29 29 28 27 27 29 30 31 31 30 31 33 34 34 34 33 33 33 32 31 30 31 30 30 31 31 31 31 31 32 32
22 21 21 21 22 23 24 25 25 26 26 27 28 28 27 26 26 28 29 29 30 30 30 30 32 32 33 33 33 33 32 32 32 32 32 32 32 32 33 33 33 33 33
20 20 20 20 21 22 22 22 23 24 25 26 26 27 27 26 26 27 28 28 28 28 29 29 30 31 32 33 32 32 33 33 32 32 31 31 32 32 33 34 34 34 34
Wind_Direction
328 304 269 258 253 244 235 217 199 193 191 196 211 234 264 295 317 330 333 332 331 329 327 327 327 327 326 323 322 323 326 331 337 346 350 355 359 357 354 343 339 336 327
303 298 270 257 253 248 245 236 223 212 212 213 218 234 251 266 297 313 320 324 327 327 324 324 324 324 324 322 320 320 321 323 329 339 349 355 356 353 348 338 333 339 337
292 279 268 261 255 247 244 239 232 223 221 224 224 232 244 254 272 291 302 309 316 319 317 318 319 319 319 317 315 314 312 311 317 331 345 352 357 356 352 347 344 352 359
287 277 263 261 260 250 243 241 238 234 227 227 229 233 243 252 260 274 288 295 303 310 310 311 314 314 313 310 308 303 297 291 297 312 329 342 350 354 356 357 355 357 360
278 270 260 257 257 253 245 240 239 238 235 234 234 235 241 250 256 262 272 280 288 297 301 303 308 308 306 303 297 289 281 274 276 287 304 319 331 343 357 0 354 353 353
273 265 259 253 251 253 251 244 241 239 237 238 239 241 242 248 253 259 266 272 278 287 292 296 299 300 298 295 288 278 268 261 262 273 284 299 312 323 343 353 351 349 344
268 262 256 248 249 250 250 248 246 243 241 240 241 243 245 249 253 255 261 268 272 278 283 288 291 289 289 287 280 271 260 253 255 264 271 284 300 310 327 339 344 343 337
266 260 253 252 252 249 250 248 245 244 243 243 245 247 247 249 253 256 257 261 266 271 275 279 282 281 280 277 272 266 256 251 252 257 264 275 291 302 313 325 332 333 330
266 261 257 255 253 251 250 249 247 244 243 244 246 248 249 249 252 254 255 258 261 265 269 272 274 275 274 271 267 263 256 253 252 256 262 269 280 293 304 313 320 323 321
269 264 259 256 256 258 253 250 248 245 244 244 246 249 252 251 252 253 254 255 257 259 262 266 268 270 269 267 264 261 257 256 254 255 260 265 270 280 292 302 309 312 313
269 266 262 257 257 261 261 259 251 249 247 246 246 249 252 252 251 250 251 253 256 257 258 260 263 264 263 262 261 258 257 256 253 253 257 261 264 270 281 290 299 301 304
270 266 264 259 260 260 260 258 254 251 249 247 247 247 249 250 249 249 249 251 252 254 255 255 257 259 259 258 257 256 256 255 253 252 255 260 262 265 272 281 289 294 297
268 265 264 261 262 261 257 254 254 253 251 249 249 247 248 250 249 249 250 249 251 253 253 252 253 255 255 255 255 254 253 253 254 253 256 259 261 264 269 275 280 287 291
267 267 266 262 261 259 257 256 256 254 253 252 250 249 248 248 249 248 250 249 250 251 252 252 251 252 251 252 252 252 251 251 253 255 256 258 260 264 268 270 275 283 287
269 268 266 263 261 260 260 258 255 255 253 253 253 250 250 251 252 250 251 250 250 249 250 251 250 252 250 249 249 250 250 251 252 253 254 256 258 262 266 270 274 278 283
269 268 266 264 263 262 262 260 258 257 255 254 252 251 251 252 252 251 250 250 249 248 248 248 249 250 249 248 249 248 249 250 252 253 255 256 257 262 266 270 273 277 280
268 268 268 265 265 264 262 262 262 260 258 256 254 253 251 251 251 252 251 250 249 248 248 248 248 248 247 248 249 247 248 249 250 253 254 256 259 263 266 270 274 276 278
268 267 267 266 266 264 262 260 260 260 256 256 255 254 252 252 252 253 253 251 250 248 247 247 248 248 247 248 249 248 247 248 250 253 254 256 259 263 267 270 272 274 276
267 267 266 266 265 265 264 262 259 260 257 255 252 252 251 252 252 252 252 252 252 250 248 247 247 249 249 249 250 250 248 245 247 250 252 255 259 263 266 269 272 274 275
270 268 266 266 265 264 264 263 261 260 257 254 250 251 251 253 254 252 251 251 251 251 250 249 248 248 249 250 250 250 249 247 248 249 251 255 259 262 265 268 272 274 277
271 268 265 264 265 264 263 263 261 259 259 256 252 251 251 253 257 255 252 250 250 250 250 249 248 248 248 250 250 249 248 248 249 249 252 255 258 262 264 268 272 275 277
274 271 267 267 267 267 265 263 260 260 259 256 251 250 248 250 255 255 253 252 249 249 249 249 248 247 247 249 249 247 247 247 248 250 251 254 257 260 263 268 271 274 276
275 274 272 270 269 267 265 262 260 258 258 255 252 251 249 249 254 255 254 253 251 250 248 248 249 248 246 248 247 246 247 248 249 251 253 256 259 263 265 268 272 274 276
276 275 272 273 271 267 264 262 260 258 257 254 252 251 251 249 251 253 252 250 250 250 248 247 247 246 243 246 247 246 246 248 252 253 256 258 261 264 266 269 273 275 277
275 275 273 273 272 269 266 262 261 260 256 252 249 248 248 251 254 253 252 250 249 248 245 243 243 242 241 245 246 246 246 248 252 256 257 260 263 266 268 271 274 276 277
276 274 274 273 272 271 268 265 263 260 255 249 247 247 249 251 253 253 252 252 249 245 246 245 242 241 242 243 244 245 247 248 252 255 260 262 265 267 269 272 273 275 276
Height
5879 5880 5881 5882 5883 5884 5885 5886 5887 5888 5889 5890 5891 5892 5893 5895 5896 5897 5898 5899 5899 5900 5900 5900 5900 5900 5900 5900 5900 5899 5899 5899 5898 5898 5898 5897 5897 5897 5896 5896 5896 5896 5896
5878 5879 5880 5881 5882 5883 5884 5884 5886 5887 5888 5889 5890 5891 5892 5894 5895 5896 5897 5898 5899 5899 5899 5900 5900 5900 5900 5899 5899 5899 5899 5899 5899 5898 5898 5898 5897 5897 5897 5896 5896 5896 5896
5877 5878 5878 5879 5880 5881 5882 5883 5884 5885 5887 5888 5889 5890 5891 5893 5894 5895 5896 5897 5898 5898 5899 5899 5899 5899 5899 5899 5899 5899 5899 5899 5898 5898 5898 5898 5898 5897 5897 5897 5896 5896 5896
5876 5876 5877 5878 5879 5879 5880 5881 5882 5883 5885 5886 5888 5889 5890 5891 5892 5894 5895 5896 5897 5897 5898 5898 5898 5898 5898 5898 5898 5898 5899 5898 5898 5898 5898 5898 5898 5897 5897 5897 5896 5896 5896
5874 5874 5875 5876 5877 5878 5878 5879 5880 5881 5883 5884 5886 5887 5888 5890 5891 5892 5893 5894 5895 5896 5896 5897 5897 5897 5897 5897 5898 5898 5898 5898 5898 5898 5898 5898 5898 5897 5897 5897 5896 5896 5895
5872 5872 5873 5874 5874 5875 5876 5877 5878 5879 5880 5882 5883 5884 5886 5887 5889 5890 5891 5892 5893 5894 5894 5895 5895 5896 5896 5896 5897 5897 5898 5898 5898 5898 5898 5897 5897 5897 5896 5896 5896 5895 5895
5870 5870 5871 5871 5872 5873 5874 5875 5876 5877 5878 5879 5881 5882 5883 5885 5886 5887 5888 5889 5890 5892 5892 5893 5894 5894 5894 5895 5895 5896 5897 5897 5897 5897 5897 5897 5897 5896 5896 5896 5895 5895 5895
5867 5868 5868 5869 5869 5870 5871 5872 5873 5874 5876 5877 5878 5880 5881 5882 5884 5885 5886 5887 5888 5889 5890 5891 5891 5892 5893 5893 5894 5895 5895 5896 5896 5896 5896 5896 5896 5896 5895 5895 5895 5895 5895
5864 5865 5865 5866 5867 5868 5869 5870 5870 5871 5873 5874 5875 5877 5878 5879 5881 5882 5883 5884 5885 5886 5887 5888 5889 5890 5891 5891 5892 5893 5893 5894 5895 5895 5895 5895 5895 5895 5894 5894 5894 5894 5894
5860 5861 5862 5863 5864 5864 5865 5866 5867 5869 5870 5871 5872 5874 5875 5876 5877 5879 5880 5881 5882 5883 5884 5885 5886 5887 5888 5889 5890 5891 5891 5892 5893 5893 5893 5894 5894 5894 5893 5893 5893 5893 5893
5857 5858 5859 5860 5860 5861 5862 5863 5864 5865 5866 5868 5869 5870 5872 5873 5874 5876 5877 5878 5879 5880 5881 5882 5883 5885 5886 5887 5888 5888 5889 5890 5890 5891 5892 5892 5892 5892 5892 5892 5892 5892 5892
5853 5854 5855 5855 5856 5857 5858 5859 5860 5861 5863 5864 5865 5867 5868 5869 5871 5872 5873 5875 5876 5877 5878 5879 5881 5882 5883 5884 5885 5886 5887 5887 5888 5889 5889 5890 5890 5890 5891 5891 5891 5891 5891
5849 5849 5851 5851 5852 5853 5854 5855 5856 5857 5858 5860 5861 5862 5864 5865 5867 5868 5869 5871 5872 5873 5875 5876 5877 5878 5880 5881 5882 5883 5884 5885 5886 5887 5887 5888 5888 5889 5889 5889 5889 5889 5889
5845 5845 5846 5847 5847 5848 5849 5850 5851 5852 5854 5855 5856 5858 5859 5860 5862 5863 5865 5867 5868 5870 5871 5872 5874 5875 5876 5878 5879 5880 5881 5882 5883 5884 5885 5885 5886 5886 5886 5887 5887 5887 5887
5840 5840 5841 5842 5842 5843 5843 5845 5846 5847 5848 5849 5851 5853 5854 5856 5857 5859 5860 5862 5864 5865 5866 5868 5869 5871 5872 5874 5875 5877 5878 5879 5880 5881 5881 5882 5883 5883 5884 5884 5884 5884 5884
5835 5835 5836 5836 5837 5837 5838 5839 5840 5841 5841 5843 5845 5847 5849 5851 5852 5854 5855 5857 5859 5860 5862 5863 5865 5866 5868 5870 5871 5873 5874 5875 5876 5877 5878 5879 5879 5880 5880 5881 5881 5881 5880
5829 5830 5830 5830 5831 5832 5832 5833 5834 5835 5836 5837 5838 5841 5843 5845 5847 5848 5850 5852 5854 5855 5857 5858 5860 5862 5864 5866 5867 5868 5870 5871 5872 5873 5874 5875 5875 5876 5877 5877 5877 5877 5877
5823 5823 5824 5824 5825 5825 5826 5827 5828 5828 5829 5830 5832 5834 5837 5839 5841 5842 5845 5847 5848 5849 5851 5853 5855 5857 5858 5860 5862 5864 5865 5866 5868 5869 5869 5870 5871 5872 5872 5872 5872 5872 5872
5816 5817 5817 5818 5818 5819 5819 5820 5821 5822 5823 5824 5825 5828 5830 5832 5834 5836 5838 5840 5841 5843 5845 5847 5849 5851 5853 5855 5857 5858 5860 5861 5863 5864 5865 5866 5866 5867 5867 5868 5868 5868 5867
5809 5810 5810 5811 5811 5811 5812 5812 5813 5815 5816 5817 5819 5821 5823 5825 5827 5829 5831 5833 5834 5836 5838 5841 5843 5845 5847 5849 5851 5853 5854 5856 5857 5858 5860 5860 5861 5862 5862 5862 5862 5862 5862
5802 5802 5802 5803 5804 5804 5805 5805 5806 5807 5808 5809 5811 5813 5815 5817 5819 5821 5823 5825 5827 5829 5832 5834 5836 5839 5841 5843 5845 5847 5848 5850 5852 5853 5854 5855 5856 5857 5857 5857 5857 5857 5856
5795 5795 5795 5796 5796 5797 5797 5798 5798 5799 5801 5802 5803 5805 5807 5809 5810 5812 5814 5816 5819 5821 5824 5827 5829 5832 5834 5836 5839 5840 5842 5845 5846 5847 5849 5850 5850 5851 5851 5851 5851 5851 5850
5789 5789 5789 5789 5789 5789 5790 5790 5791 5792 5794 5795 5796 5798 5799 5801 5803 5805 5807 5809 5811 5814 5816 5819 5822 5824 5827 5830 5832 5834 5836 5838 5839 5841 5842 5843 5844 5845 5845 5845 5845 5844 5844
5782 5782 5782 5782 5782 5782 5783 5783 5784 5785 5787 5788 5790 5791 5792 5794 5796 5798 5800 5802 5804 5806 5809 5811 5814 5817 5819 5822 5825 5827 5830 5832 5833 5834 5835 5836 5837 5837 5838 5838 5838 5837 5836
5775 5775 5775 5776 5776 5776 5776 5777 5777 5778 5780 5781 5783 5784 5786 5787 5789 5792 5794 5795 5797 5799 5801 5804 5807 5810 5813 5815 5818 5820 5822 5824 5826 5827 5829 5830 5830 5830 5830 5830 5830 5830 5829
5769 5769 5770 5770 5770 5770 5770 5770 5771 5772 5773 5775 5776 5778 5780 5781 5783 5785 5787 5788 5790 5792 5795 5797 5800 5803 5806 5809 5811 5813 5815 5817 5819 5820 5821 5822 5822 5823 5823 5823 5822 5822 5821